Location: Lancaster
(34.6980°N, 118.1360°W)
Time: 11:34:37
(UTC-08:00)

Hubble Space Telescope - Pass Details

Date: 14 November 2017
Orbit: 537 x 541 km, 28.5° (Epoch: 18 November)

Event Time Altitude Azimuth Distance (km) Brightness Sun altitude
Rises 05:16:48 0° 212° (SSW) 2,664 4.1 -14.4°
Reaches altitude 10° 05:20:20 10° 181° (S) 1,777 3.6 -13.7°
Maximum altitude 05:21:56 12° 157° (SSE) 1,652 3.7 -13.3°
Drops below altitude 10° 05:23:33 10° 134° (SE) 1,780 4.4 -13.0°
Sets 05:27:05 0° 103° (ESE) 2,674 6.5 -12.3°
